Flag for U.S.A. Weather past 2 weeks in Birmingham, Alabama, U.S.A.

Now
64 °F

Clear.


Feels Like: 64 °F
Forecast: 56 / 82 °F
Wind: 6 mph from Northeast

Location: Birmingham International Airport

Current Time: Sep 22, 2014 at 10:15:14 PM

Latest Report: Sep 22, 2014 at 9:53 PM


Visibility: 10 mi

Pressure: 30.13 "Hg

Humidity: 61%

Dew point: 50 °F

Location of BirminghamLocation

Historic Weather in Birmingham — Graph

°F

Birmingham temperature yesterday

Maximum temperature yesterday: 89 °F (at 2:53 PM)
Minimum temperature yesterday: 63 °F (at 6:53 AM)
Average temperature yesterday: 77 °F

Past Weeks' High & Low Weather Summary

 TemperatureHumidityPressure
High93 °F (Sep 11, 3:53 PM)94% (Sep 9, 5:53 AM)30.20 "Hg (Sep 9, 5:53 AM)
Low62 °F (Sep 14, 5:53 AM)32% (Sep 22, 4:53 PM)29.92 "Hg (Sep 18, 4:53 PM)
Average77 °F72%30.04 "Hg
* Reported Sep 7 8:53 PM — Sep 22 8:53 PM, Birmingham, Weather by CustomWeather, © 2014

Note: Actual official high and low records may vary slightly from our data, if they occured in-between our weather recording intervals... More about our weather records

Advertising

Birmingham weather history for previous 24 hours

 ConditionsComfort  
Time TempWeatherWind HumidityBarometerVisibility
8:53 PM
Sep 22
65 °FClear.No wind59%30.12 "Hg10 mi
7:53 PM65 °FClear.3 mph59%30.11 "Hg10 mi
6:53 PM70 °FSunny.9 mph44%30.09 "Hg10 mi
5:53 PM76 °FSunny.14 mph36%30.08 "Hg10 mi
4:53 PM79 °FSunny.15 mph32%30.06 "Hg10 mi
3:53 PM80 °FSunny.12 mph35%30.06 "Hg10 mi
2:53 PM81 °FSunny.20 mph34%30.07 "Hg10 mi
1:53 PM81 °FSunny.15 mph33%30.08 "Hg10 mi
12:53 PM80 °FSunny.8 mph35%30.09 "Hg10 mi
11:53 AM77 °FPassing clouds.12 mph37%30.11 "Hg10 mi
10:53 AM76 °FPassing clouds.16 mph40%30.11 "Hg10 mi
9:53 AM74 °FPassing clouds.10 mph48%30.10 "Hg10 mi
8:53 AM71 °FPassing clouds.8 mph53%30.09 "Hg10 mi
7:53 AM67 °FPassing clouds.6 mph63%30.08 "Hg10 mi
6:53 AM63 °FPassing clouds.6 mph75%30.08 "Hg10 mi
5:53 AM64 °FPassing clouds.7 mph81%30.05 "Hg10 mi
4:53 AM65 °FPassing clouds.7 mph85%30.04 "Hg10 mi
3:53 AM67 °FClear.3 mph79%30.03 "Hg10 mi
2:53 AM70 °FOvercast.8 mph73%30.01 "Hg10 mi
1:53 AM72 °FMostly cloudy.10 mph84%30.00 "Hg10 mi
12:53 AM74 °FThundershowers. Mostly cloudy.8 mph88%30.00 "Hg10 mi
11:53 PM
Sep 21
75 °FOvercast.No wind82%29.99 "Hg10 mi
11:04 PM76 °FOvercast.3 mph74%30.03 "Hg10 mi
10:53 PM77 °FThundershowers. Mostly cloudy.7 mph69%29.99 "Hg10 mi
Weather by CustomWeather, © 2014

See weather overviewHow to use our weather pages